Regional Weather Roundup
Issued by NWS

Home | Current Version | Previous Version | Graphics & Text | Print | Product List | Glossary On
Versions: 1 2 3 4 5 6 7 8 9 10 11 12 13 14 15 16 17 18 19 20 21 22 23 24 25 26 27 28 29 30 31 32 33 34 35 36 37 38 39 40 41 42 43 44 45 46 47 48 49 50
000
ASUS45 KCYS 290410
RWRWY

WYOMING REGIONAL WEATHER ROUNDUP
NATIONAL WEATHER SERVICE CHEYENNE WY
900 PM MST SUN DEC 28 2014

NOTE:  "FAIR" INDICATES FEW OR NO CLOUDS BELOW 12,000 FEET
WITH NO SIGNIFICANT WEATHER AND/OR OBSTRUCTIONS TO VISIBILITY.

WYZ001-290500-
YELLOWSTONE NATIONAL PARK

CITY           SKY/WX    TMP DP  RH WIND       PRES   REMARKS
LK YELLOWSTONE   N/A     10   6  84 CALM      29.92R
W YELLOWSTONE  NOT AVBL

$$
WYZ002>013-054>058-071-098>099-290500-
NORTHERN WYOMING

CITY           SKY/WX    TMP DP  RH WIND       PRES   REMARKS
JACKSON        CLOUDY     3   3 100 NE3       29.96R
CODY           CLOUDY    16   9  73 NW16G23   30.08R WCI   0
GREYBULL       FAIR      17  11  77 N18       30.07R WCI   1
WORLAND        LGT SNOW  13   9  84 S6        30.07R FOG     WCI   4
SHERIDAN       LGT SNOW  17  13  84 NW24      30.12R VSB 1   WCI  -1
BUFFALO        MIX PCPN  16  13  88 N21G32    30.03R WCI  -1
GILLETTE       LGT SNOW  20  17  88 N6        30.02R FOG     WCI  12
HULETT           N/A    N/A N/A N/A MISG        N/A
NEWCASTLE      FAIR      19  16  86 N6        30.02R WCI  11

$$
WYZ014>020-022>026-101>103-290500-
CENTRAL WYOMING

CITY           SKY/WX    TMP DP  RH WIND       PRES   REMARKS
BIG PINEY      FAIR      -8 -12  83 CALM      29.94R
PINEDALE       FAIR      -6  -8  92 CALM      29.93R
DUBOIS         NOT AVBL
LANDER         CLOUDY    10   4  76 NW5       29.97R WCI   2
RIVERTON       LGT SNOW  15   9  76 W6        29.98R WCI   6
CASPER         LGT SNOW  20  17  88 N8        29.96R VSB 3/4 WCI  10
DOUGLAS        LGT SNOW  20  17  88 N5        29.97R FOG     WCI  13

$$
WYZ021-027>030-104>119-290500-
SOUTHERN WYOMING

CITY           SKY/WX    TMP DP  RH WIND       PRES   REMARKS
EVANSTON       LGT SNOW  15  13  91 SW5       29.95S FOG     WCI   8
FORT BRIDGER   FAIR      17  14  89 W9        29.96S WCI   5
ROCK SPRINGS   FAIR      11   8  88 SW9       29.95R WCI  -2
DIXON          CLOUDY    11   8  86 CALM      29.98S
RAWLINS        CLOUDY    14  10  84 SW8       29.92R WCI   3
SARATOGA       MOCLDY    14  10  85 W13       29.92R WCI   0
LARAMIE        FAIR       9   4  80 W10       29.85R WCI  -5
CHEYENNE       FAIR      18   8  65 W9        29.89R WCI   7
TORRINGTON     FLURRIES  23  18  81 N5        29.96R WCI  17
PINE BLUFFS    CLOUDY    19  16  86 CALM      29.92S

$$



USA.gov is the U.S. government's official web portal to all federal, state and local government web resources and services.